Torna al catalogo

MIDAS 4 DEB

AttivoPO
NORAD 27478·DEBRIS·🇺🇸 United States

Lanciato Oct 21, 1961 da Vandenberg Space Force Base

Loading…

Prossimi Passaggi (prossime 24 ore)

TLE

AggiornatoSource: Space-Track

Epoca: Sep 11, 2026, 21:26 UTC

1 27478U 61028H   26254.89330720 -.00000015  00000-0 -49256-2 0  9992
2 27478  95.8521 236.3976 0262266 243.3471 138.6644  8.66661688598306

Traccia MIDAS 4 DEB in tempo reale con AllMySat

Download on the App Store